www.pogodaiklimat.ru

Погода и климат >> Архив погоды >> Россия >> Якутия >> Екюччю


ПОГОДА в Екюччю

  • Прогноз погоды в Екюччю
  • Монитор погоды в Екюччю

АРХИВ ПОГОДЫ в Екюччю

Время (UTC), дата Ветер
(напр.,м/с)
 
Видим.   Явления Облачность Т
(С)
Тd
(С)
f
(%)
Тe
(С)
Тes
(С)
Комфортность P
(гПа)
Po
(гПа)
Тmin
(С)
Tmax
(С)
R
(мм)
R24
(мм)
S
(см)
06 13.02 штиль 0 50 км ясно -39.4 -42.9 69 -39 -39 опасность
обморожения
1020.1 990.8
09 13.02 штиль 0 50 км ясно -43.6 -46.3 74 -44 -44 опасность
обморожения
1020.8 990.9 -39.4
12 13.02 штиль 0 50 км 3/0
[Ci fib]
-48.6 -51.8 69 -49 -49 опасность
обморожения
1021.6 991.0
15 13.02 штиль 0 50 км ясно -50.1 -53.1 70 -50 -50 опасность
обморожения
1021.6 990.8
18 13.02 штиль 0 50 км ясно -50.3 -53.1 72 -50 -50 опасность
обморожения
1021.6 990.8
21 13.02 штиль 0 50 км ясно -51.3 -53.1 81 -51 -51 опасность
обморожения
1021.6 990.7 -51.3 14
00 14.02 штиль 0 50 км ясно -51.2 -53.1 80 -51 -51 опасность
обморожения
1021.5 990.6 -51.5
03 14.02 штиль 0 50 км ясно -43.2 -46.2 72 -43 -42 опасность
обморожения
1019.7 989.9
06 14.02 штиль 0 50 км ясно -40.2 -43.4 71 -40 -40 опасность
обморожения
1017.7 988.3
09 14.02 штиль 0 50 км ясно -44.6 -47.6 72 -45 -45 опасность
обморожения
1017.9 987.8 -40.2
12 14.02 штиль 0 50 км ясно -47.6 -50.6 71 -48 -48 опасность
обморожения
1018.2 987.7
15 14.02 штиль 0 50 км 3/0
[Ci fib]
-48.8 -51.8 71 -49 -49 опасность
обморожения
1016.4 985.9
18 14.02 штиль 0 50 км 9/0
[Cs]
-47.6 -50.6 71 -48 -48 опасность
обморожения
1014.0 983.7
21 14.02 штиль 0 50 км 10/0
[]
-44.3 -46.4 79 -44 -44 опасность
обморожения
1010.9 981.3 -48.8 14
00 15.02 штиль 0 50 км 10/0
[Cs]
-41.5 -43.8 78 -42 -41 опасность
обморожения
1008.9 979.5
03 15.02 С 1 50 км {снег} 10/0
[As op Cs]
-39.8 -42.2 78 -45 -45 опасность
обморожения
1007.1 978.0
06 15.02 С 1 50 км 10/0
[Cs]
-38.2 -40.3 80 -43 -43 опасность
обморожения
1005.8 977.1
09 15.02 штиль 0 50 км 10/0
[Cs]
-41.2 -43.2 81 -41 -41 опасность
обморожения
1006.1 977.0 -38.2 0.0
12 15.02 штиль 0 50 км 3/0
[Ci fib]
-41.5 -44.4 73 -42 -42 опасность
обморожения
1005.9 976.7
15 15.02 штиль 0 50 км 4/0
[Ci fib]
-39.4 -41.7 79 -39 -39 опасность
обморожения
1004.2 975.3
18 15.02 штиль 0 50 км 4/0
[Ci fib]
-44.9 -47.8 72 -45 -45 опасность
обморожения
1003.9 974.3
21 15.02 штиль 0 50 км ясно -45.2 -47.8 75 -45 -45 опасность
обморожения
1002.8 973.2 -45.2 14
00 16.02 СЗ 1 50 км 3/0
[Ci fib]
-45.0 -47.8 73 -51 -51 опасность
обморожения
1002.8 973.2
03 16.02 штиль 0 50 км ясно -38.8 -41.8 73 -39 -38 опасность
обморожения
1001.8 972.9
06 16.02 штиль 0 50 км ясно -34.3 -38.5 66 -34 -34 опасность
обморожения
1001.5 973.3
09 16.02 штиль 0 50 км 6/0
[Ci fib]
-40.6 -43.3 75 -41 -41 опасность
обморожения
1002.1 973.6 -34.1
12 16.02 штиль 0 50 км 9/0
[Cs]
-40.8 -43.8 73 -41 -41 опасность
обморожения
1004.5 975.4
15 16.02 штиль 0 50 км 10/0
[Cs]
-41.1 -43.8 75 -41 -41 опасность
обморожения
1005.3 976.2
18 16.02 штиль 0 50 км 10/0
[Cs]
-41.5 -44.4 73 -42 -42 опасность
обморожения
1005.8 976.6
21 16.02 Ю 3 20 км слаб. снег 10/0
[Cs]
-38.7 -40.8 80 -50 -50 опасность
обморожения
1008.3 979.3 -41.5 0.0 14
00 17.02 Ю 2 20 км слаб. снег 10/0
[As op]
-36.5 -38.8 79 -45 -45 опасность
обморожения
1009.5 980.7
03 17.02 Ю 1 50 км в посл. час снег 10/0
[As op Cs]
-34.2 -36.5 80 -39 -38 опасность
обморожения
1009.6 981.2
06 17.02 З 2 20 км слаб. снег 10/0
[Cs]
-31.4 -33.6 81 -39 -39 опасность
обморожения
1009.4 981.4
09 17.02 штиль 0 50 км {снег} 3/0
[Ci fib]
-37.4 -39.5 81 -37 -37 опасность
обморожения
1011.5 982.6 -31.4 0.3
12 17.02 Ю 2 50 км ясно -41.6 -44.4 74 -51 -51 опасность
обморожения
1012.2 982.7
15 17.02 штиль 0 50 км ясно -44.4 -46.4 80 -44 -44 опасность
обморожения
1012.5 982.7
21 17.02 штиль 0 50 км ясно -44.7 -47.0 78 -45 -45 опасность
обморожения
1013.8 984.0 -44.9 14
00 18.02 штиль 0 50 км 10/0
[Cs]
-44.3 -47.0 74 -44 -44 опасность
обморожения
1015.2 985.4
03 18.02 штиль 0 50 км 6/0
[Ci fib]
-37.6 -40.5 74 -38 -36 опасность
обморожения
1015.0 986.0
06 18.02 штиль 0 50 км 3/0
[Ci fib]
-32.4 -36.2 69 -32 -32 опасность
обморожения
1014.8 986.5
09 18.02 штиль 0 50 км ясно -40.0 -42.8 74 -40 -40 опасность
обморожения
1016.3 987.0 -32.4
12 18.02 штиль 0 50 км ясно -42.8 -45.6 74 -43 -43 опасность
обморожения
1018.3 988.5
15 18.02 штиль 0 50 км ясно -44.5 -46.4 81 -45 -45 опасность
обморожения
1019.4 989.3
18 18.02 штиль 0 50 км ясно -45.3 -47.2 81 -45 -45 опасность
обморожения
1019.8 989.7
21 18.02 штиль 0 50 км ясно -45.5 -47.2 83 -46 -46 опасность
обморожения
1020.0 989.8 -45.5 14
00 19.02 штиль 0 50 км ясно -46.1 -48.1 80 -46 -46 опасность
обморожения
1020.4 990.2 -46.3
03 19.02 штиль 0 50 км ясно -37.9 -41.6 68 -38 -37 опасность
обморожения
1018.9 989.7
06 19.02 С 1 50 км ясно -37.5 -40.5 73 -42 -42 опасность
обморожения
1018.4 989.2
09 19.02 С 1 50 км ясно -37.7 -40.5 75 -43 -43 опасность
обморожения
1018.7 989.5 -37.5
12 19.02 З 2 20 км слаб. снег 10/0
[Cs]
-31.4 -33.6 81 -39 -39 опасность
обморожения
1009.4 981.4
15 19.02 штиль 0 50 км 3/0
[Ci fib]
-44.3 -46.4 79 -44 -44 опасность
обморожения
1021.4 991.5
18 19.02 штиль 0 50 км 3/0
[Ci fib]
-44.9 -47.2 78 -45 -45 опасность
обморожения
1022.4 992.3
21 19.02 штиль 0 50 км 3/0
[Ci fib]
-45.5 -47.2 83 -46 -46 опасность
обморожения
1024.0 993.6 -45.5 14
00 20.02 З 2 50 км ясно -44.6 -47.0 77 -54 -54 опасность
обморожения
1024.7 994.5
03 20.02 Ю 2 50 км ясно -37.5 -40.5 73 -46 -45 опасность
обморожения
1024.3 995.0

 

Местоположение метеостанции Екюччю (Якутия, Россия): широта 66.77 долгота 131.60 высота над уровнем моря 200 м.

В архиве по умолчанию представлена погода в Екюччю за последнюю неделю. Архивные данные за месяц целиком и за предыдущие месяцы, начиная с января 2011 года, Вы можете получить, выбрав интересующий диапазон дат из раскрывающегося списка и нажав кнопку "Ввод!".


*Определитесь, кто Вы:
робот инопланетянин человек

Внимание! Время в таблицах - всемирное. Для получения местного времени необходимо прибавить поправку, которая равна 10 ч.

Смотрите также архив погоды в соседних городах и на ближайших метеорологических станциях:

Погода в Верхоянске (Якутия, Россия) (118 км)
Погода в Батагай-Алыте (Якутия, Россия) (124 км)
Погода в Батагае (Якутия, Россия) (162 км)
Погода в Себян-Кюеле (Якутия, Россия) (179 км)
Погода в Усть-Чарках (Якутия, Россия) (219 км)
Погода в Иэме (Якутия, Россия) (250 км)
Погода в Сеген-Кюеле (Якутия, Россия) (314 км)
Погода в Жиганске (Якутия, Россия) (364 км)
Погода в Сого-Хае (Якутия, Россия) (366 км)
Погода в Сангаре (Якутия, Россия) (369 км)

Пояснения к столбцам:

Ветер - указаны скорость ветра в м/с - средняя за 10 мин, порывы в срок и между сроками (в фигурных скобках) и направление, откуда дует ветер: С - северный, СВ - северо-восточный, В - восточный, ЮВ - юго-восточный, Ю - южный, ЮЗ - юго-западный, З - западный, СЗ - северо-западный.
Видимость - горизонтальная дальность видимости в метрах или километрах. При видимости от 1 до 10 км при отсутствии осадков обычно наблюдается дымка, при ухудшении видимости до 1 км и менее - туман. В сухую погоду видимость может ухудшаться дымом, пылью или мглою.
Явления - указаны атмосферные явления, наблюдавшиеся в срок или в последний час перед сроком; фигурными скобками обозначены явления, наблюдавшиеся между сроками (за 1-3 часа до срока); квадратными скобками обозначены град или гололедные отложения с указанием их диаметра в мм.
Облачность - указаны через наклонную черту общая и нижняя облачность в баллах и высота нижней границы облаков в метрах; квадратными скобками обозначены формы облаков: Ci - перистые, Cs - перисто-слоистые, Cc - перисто-кучевые, Ac - высококучевые, As - высокослоистые, Sc - слоисто-кучевые, Ns - слоисто-дождевые, Cu - кучевые, Cb - кучево-дождевые. Подробнее классификацию облаков см. в Атласе облаков (PDF).
T - Температура воздуха - температура, измеренная на высоте 2 м над землей.
Td - Температура точки росы - температура, при понижении до которой содержащийся в воздухе водяной пар достигнет насыщения.
f - Относительная влажность воздуха - влажноcть воздуха, измеренная на высоте 2 м над землей.
Te - Эффективная температура - температура, которую ощущает одетый по сезону человек в тени. Характеристика душности погоды. При расчете учитывается влияние влажности воздуха и скорости ветра на теплоощущения человека.
Tes - Эффективная температура на солнце - температура, которую ощущает человек, с поправкой на солнечный нагрев. Характеристика знойности погоды. Зависит от высоты солнца над горизонтом, облачности и скорости ветра. Ночью, в пасмурную погоду, а также при ветре 12 м/с и более поправка равна нулю.
P - Атмосферное давление - приведенное к уровню моря атмосферное давление.
Po - Атмосферное давление - измеренное на уровне метеостанции атмосферное давление.
Tmin - Минимальная температура - минимум температуры воздуха на высоте 2 м над землей.
Tmax - Максимальная температура - максимум температуры воздуха на высоте 2 м над землей.
R - Количество осадков - Количество выпавших осадков за период времени, мм. При наведении курсора мыши на число - период времени, за который выпало указанное количество осадков.
R24 - Количество осадков - Количество выпавших осадков за 24 часа, мм.
S - Снежный покров - Высота снежного покрова, см. При наведении курсора мыши на число - состояние снежного покрова и степень покрытия местности в баллах.